Location: Bismarck
(46.7731°N, 100.8200°W)
Time: 06:30:48
(UTC-06:00)

ISS - Pass Details

Date: 26 November 2017
Orbit: 403 x 407 km, 51.6° (Epoch: 12 December)

Event Time Altitude Azimuth Distance (km) Brightness Sun altitude
Rises 00:45:09 0° 295° (WNW) 2,329 - -64.0°
Reaches altitude 10° 00:47:15 10° 299° (WNW) 1,466 - -64.0°
Maximum altitude 00:50:31 64° 22° (NNE) 452 - -63.9°
Drops below altitude 10° 00:53:46 10° 105° (ESE) 1,458 - -63.8°
Sets 00:55:51 0° 108° (ESE) 2,314 - -63.7°
